www.pogodaiklimat.ru

Погода и климат >> Архив погоды >> Нигер >> Зиндер


ПОГОДА в Зиндере

  • Прогноз погоды в Зиндере
  • Монитор погоды в Зиндере

АРХИВ ПОГОДЫ в Зиндере

Время (UTC), дата Ветер
(напр.,м/с)
 
Видим.   Явления Облачность Т
(С)
Тd
(С)
f
(%)
Тe
(С)
Тes
(С)
Комфортность P
(гПа)
Po
(гПа)
Тmin
(С)
Tmax
(С)
R
(мм)
R24
(мм)
S
(см)
21 16.08 З 4 10 км 9/0
[Cs]
+28.0 +20.3 63 +34 +34 очень
душно
1010.7 960.7
00 17.08 З 4 10 км 9/0
[Ac trans Cs]
+26.0 +21.0 74 +33 +33 очень
душно
1010.1 960.2
03 17.08 ЮЗ 6 10 км 9/0
[Ac As Ci sp]
+25.5 +21.9 81 +33 +33 очень
душно
1009.7 960.0
06 17.08 З 4 10 км 9/0
[Ac As Ci sp]
+25.2 +22.0 82 +32 +33 очень
душно
1010.6 960.7 +25.0
09 17.08 З 6 10 км в посл. час дождь 9/0
[Ac As Ci sp]
+27.0 +22.4 76 +35 +38 очень
душно
1012.4 962.3
12 17.08 З 6 10 км {дождь} 10/0
[Ac As]
+29.4 +21.9 64 +38 +40 очень
душно
1011.2 961.2 0.1
15 17.08 З 6 10 км 9/4 1000 м
[Cu med, cong Ac trans Ci sp]
+32.2 +21.4 53 +40 +41 очень
душно
1007.4 957.8
18 17.08 З 4 10 км 9/3 900 м
[Cu hum Ac trans Ci sp]
+30.5 +20.2 54 +37 +37 очень
душно
1008.3 958.5 +32.6 0.1
21 17.08 С 8 10 км зарница 9/3 1000 м
[Cb cap Ac cuf Cs]
+28.2 +20.5 63 +35 +35 очень
душно
1010.3 960.3
00 18.08 З 2 10 км зарница 9/1 1200 м
[Cb cap Ac As Ci sp]
+26.7 +21.6 74 +34 +34 очень
душно
1009.6 959.7
06 18.08 З 10 10 км 9/0
[Ac As Ci sp]
+26.0 +21.9 78 +33 +33 очень
душно
1008.9 959.1 +24.8 0.1
09 18.08 З 10 10 км 9/1 900 м
[Sc Ac trans Ci sp]
+30.0 +21.9 62 +39 +39 очень
душно
1010.0 960.2
12 18.08 СЗ 8 10 км 9/4 900 м
[Cu med, cong Ac trans Ci sp]
+34.3 +20.8 45 +41 +43 опасность
перегрева
1008.6 959.1
15 18.08 СЗ 10 10 км 9/4 900 м
[Cb cap Ac trans Ci sp]
+35.2 +20.0 41 +41 +41 опасность
перегрева
1005.1 955.8
18 18.08 ЮЗ 10 10 км зарница 9/4 1000 м
[Cb cap Ac As Ci sp]
+32.0 +21.9 55 +41 +41 опасность
перегрева
1005.9 956.3 +35.6
21 18.08 ЮЗ 6 10 км зарница {гроза} 10/4 1000 м
[Cb cap Ac As]
+22.4 +20.8 91 +29 +29 очень
душно
1008.5 958.3
00 19.08 ЮВ 6 8000 м гроза, ливневой дождь 10/3 1000 м
[Cb cap Ac As]
+22.0 +18.9 83 +27 +27 душно 1009.6 959.8 56
06 19.08 штиль 0 10 км в посл. час дождь {гроза} 9/0
[Ac As]
+23.0 +20.8 87 +30 +31 очень
душно
1007.6 957.7 +20.3 62
09 19.08 ЮЗ 6 10 км 9/0
[Ac As Ci sp]
+27.2 +21.8 72 +35 +37 очень
душно
1009.9 959.5
12 19.08 ЮЗ 6 10 км 9/1 900 м
[Cu hum Ac trans Ci sp]
+30.5 +22.3 62 +40 +44 очень
душно
1008.6 958.5
15 19.08 ЮЗ 6 10 км 9/4 1000 м
[Cu med, cong Ac trans Ci sp]
+32.5 +21.7 53 +41 +42 опасность
перегрева
1006.7 956.9
18 19.08 З 4 10 км 9/3 1200 м
[Cb cap Ac lent Ci sp]
+30.5 +22.6 63 +40 +40 очень
душно
1006.9 957.0 +33.0
21 19.08 ЮЗ 6 10 км зарница 9/1 1200 м
[Cb cap Ac trans Ci sp]
+25.4 +22.7 85 +33 +33 очень
душно
1009.5 959.4
00 20.08 ЮЗ 6 10 км 9/0
[Ac trans Cs]
+24.2 +22.8 92 +32 +32 очень
душно
1009.1 959.1
03 20.08 ЮЗ 4 10 км 9/0
[Ac trans Cs]
+23.5 +22.5 94 +31 +31 очень
душно
1009.0 959.1
06 20.08 ЮЗ 4 10 км 9/3 900 м
[Sc Ac trans Ci sp]
+23.8 +22.4 92 +31 +31 очень
душно
1010.2 960.1 +23.0
09 20.08 З 10 10 км 9/4 1000 м
[Cu med, cong Ci sp]
+28.0 +21.4 67 +35 +36 очень
душно
1011.8 961.6
12 20.08 СЗ 10 10 км 9/4 1000 м
[Cu med, cong Ac trans Ci sp]
+30.2 +22.0 62 +39 +39 очень
душно
1010.4 960.3
15 20.08 З 10 10 км 9/6 1000 м
[Cb cap Ac trans]
+31.5 +21.2 54 +39 +39 очень
душно
1008.2 958.3
18 20.08 З 6 10 км 9/1 1200 м
[Cb cap Ac trans Cs]
+29.0 +21.4 64 +37 +37 очень
душно
1009.2 959.1 +31.7
21 20.08 СЗ 4 10 км зарница 9/1 1200 м
[Cb cap Ac trans Ci sp]
+27.3 +22.5 75 +36 +36 очень
душно
1011.3 961.3
03 21.08 штиль 0 10 км гроза, ливневой дождь 9/3 1200 м
[Cb cap Ac As]
+21.5 +20.5 94 +27 +27 душно 1011.7 961.5
06 21.08 штиль 0 10 км слаб. дождь {гроза} 10/0
[Ac As]
+22.2 +20.4 90 +29 +29 очень
душно
1011.1 960.7 +21.0 50
09 21.08 Ю 6 10 км {дождь} 9/5 600 м
[Frnb Ac As]
+23.7 +21.2 86 +30 +31 очень
душно
1012.3 961.9
12 21.08 Ю 2 10 км {дождь} 9/4 900 м
[Cu med, cong Ac As]
+26.2 +21.2 74 +33 +39 очень
душно
1012.2 961.5 0.1
15 21.08 Ю 6 10 км 9/4 900 м
[Cu med, cong Ac As Ci sp]
+27.7 +20.8 66 +35 +36 очень
душно
1008.9 958.5
18 21.08 ЮЗ 4 10 км {дождь} 9/3 900 м
[Cu med, cong Ac As Ci sp]
+26.7 +20.9 71 +34 +34 очень
душно
1009.0 958.6 +28.3 0.2
21 21.08 СЗ 4 10 км 9/4 900 м
[Sc Ac As Ci sp]
+24.8 +20.9 79 +31 +31 очень
душно
1011.0 960.6
03 22.08 ЮЗ 4 10 км 9/0
[Ac As Ci sp]
+23.7 +21.9 90 +31 +31 очень
душно
1009.7 959.4
06 22.08 штиль 0 10 км 9/3 600 м
[Frnb Ac As Ci sp]
+23.5 +22.2 92 +30 +31 очень
душно
1010.3 959.9 +23.3 0.2
09 22.08 З 8 10 км 9/6 900 м
[Cu Sc Ac As Ci sp]
+25.8 +22.6 83 +34 +35 очень
душно
1012.0 961.6
12 22.08 З 8 10 км {дождь} 9/6 900 м
[Cu Sc Ac As Ci sp]
+28.0 +21.4 67 +35 +36 очень
душно
1010.7 960.5 0.2
15 22.08 ЮЗ 2 10 км 9/4 1000 м
[Cu med, cong Ci sp]
+29.5 +21.5 62 +37 +42 очень
душно
1008.8 958.7
18 22.08 Ю 4 10 км 9/3 1200 м
[Cb cap Ac lent Ci sp]
+28.0 +22.2 71 +37 +37 очень
душно
1008.8 958.6 +30.2 0.2
21 22.08 Ю 2 10 км 9/0
[Ac trans Cs]
+26.5 +22.9 81 +35 +35 очень
душно
1011.8 961.5
03 23.08 ЮЗ 4 10 км 9/4 900 м
[Sc Ac As Ci sp]
+24.5 +22.6 89 +32 +32 очень
душно
1011.1 960.7
06 23.08 штиль 0 10 км 9/1 900 м
[Sc Ac cast Ci sp]
+24.5 +22.3 88 +32 +33 очень
душно
1013.0 962.7 +24.2 0.2
09 23.08 ЮЗ 6 10 км 9/4 1000 м
[Cu med, cong Ci sp]
+28.0 +21.4 67 +35 +38 очень
душно
1014.0 963.8
12 23.08 Ю 6 10 км 9/9 1000 м
[]
+30.2 +21.2 59 +38 +39 очень
душно
1011.5 961.5
15 23.08 Ю 4 10 км 9/4 1000 м
[Cu med, cong Ac trans Ci sp]
+32.3 +19.7 47 +38 +40 очень
душно
1009.1 959.3

 

Местоположение метеостанции Зиндер (Нигер): широта 13.78 долгота 8.98 высота над уровнем моря 453 м.

В архиве по умолчанию представлена погода в Зиндере за последнюю неделю. Архивные данные за месяц целиком и за предыдущие месяцы, начиная с января 2011 года, Вы можете получить, выбрав интересующий диапазон дат из раскрывающегося списка и нажав кнопку "Ввод!".


*Определитесь, кто Вы:
робот инопланетянин человек

Внимание! Время в таблицах - всемирное. Для получения местного времени необходимо прибавить поправку, которая равна 1 ч.

Смотрите также архив погоды в соседних городах и на ближайших метеорологических станциях:

Погода в Магарьа (Нигер) (89 км)
Погода в Гуре (Нигер) (144 км)
Погода в Кацине (Нигерия) (164 км)
Погода в Кано (Нигерия) (199 км)
Погода в Маради (Нигер) (208 км)
Погода в Майне-Сороа (Нигер) (330 км)
Погода в Агадесе (Нигер) (371 км)
Погода в Вирнин-Конни (Нигер) (403 км)
Погода в Диффе (Нигер) (413 км)
Погода в Тахве (Нигер) (421 км)

Пояснения к столбцам:

Ветер - указаны скорость ветра в м/с - средняя за 10 мин, порывы в срок и между сроками (в фигурных скобках) и направление, откуда дует ветер: С - северный, СВ - северо-восточный, В - восточный, ЮВ - юго-восточный, Ю - южный, ЮЗ - юго-западный, З - западный, СЗ - северо-западный.
Видимость - горизонтальная дальность видимости в метрах или километрах. При видимости от 1 до 10 км при отсутствии осадков обычно наблюдается дымка, при ухудшении видимости до 1 км и менее - туман. В сухую погоду видимость может ухудшаться дымом, пылью или мглою.
Явления - указаны атмосферные явления, наблюдавшиеся в срок или в последний час перед сроком; фигурными скобками обозначены явления, наблюдавшиеся между сроками (за 1-3 часа до срока); квадратными скобками обозначены град или гололедные отложения с указанием их диаметра в мм.
Облачность - указаны через наклонную черту общая и нижняя облачность в баллах и высота нижней границы облаков в метрах; квадратными скобками обозначены формы облаков: Ci - перистые, Cs - перисто-слоистые, Cc - перисто-кучевые, Ac - высококучевые, As - высокослоистые, Sc - слоисто-кучевые, Ns - слоисто-дождевые, Cu - кучевые, Cb - кучево-дождевые. Подробнее классификацию облаков см. в Атласе облаков (PDF).
T - Температура воздуха - температура, измеренная на высоте 2 м над землей.
Td - Температура точки росы - температура, при понижении до которой содержащийся в воздухе водяной пар достигнет насыщения.
f - Относительная влажность воздуха - влажноcть воздуха, измеренная на высоте 2 м над землей.
Te - Эффективная температура - температура, которую ощущает одетый по сезону человек в тени. Характеристика душности погоды. При расчете учитывается влияние влажности воздуха и скорости ветра на теплоощущения человека.
Tes - Эффективная температура на солнце - температура, которую ощущает человек, с поправкой на солнечный нагрев. Характеристика знойности погоды. Зависит от высоты солнца над горизонтом, облачности и скорости ветра. Ночью, в пасмурную погоду, а также при ветре 12 м/с и более поправка равна нулю.
P - Атмосферное давление - приведенное к уровню моря атмосферное давление.
Po - Атмосферное давление - измеренное на уровне метеостанции атмосферное давление.
Tmin - Минимальная температура - минимум температуры воздуха на высоте 2 м над землей.
Tmax - Максимальная температура - максимум температуры воздуха на высоте 2 м над землей.
R - Количество осадков - Количество выпавших осадков за период времени, мм. При наведении курсора мыши на число - период времени, за который выпало указанное количество осадков.
R24 - Количество осадков - Количество выпавших осадков за 24 часа, мм.
S - Снежный покров - Высота снежного покрова, см. При наведении курсора мыши на число - состояние снежного покрова и степень покрытия местности в баллах.